Location: El Manguito
(10.2358°N, 67.3634°W)
Time: 20:56:55
(UTC+00:00)

Aurora 2 Rocket - Pass Details

Date: 07 December 2024
Orbit: 386 x 1590 km, 25.0° (Epoch: 12 January)

Event Time Altitude Azimuth Distance (km) Brightness Sun altitude
Rises 23:36:41 0° 220° (SW) 4,286 7.9 -21.2°
Reaches altitude 10° 23:39:52 10° 211° (SSW) 3,466 7.0 -21.9°
Maximum altitude 23:47:55 33° 151° (SSE) 2,369 5.4 -23.8°
Enters shadow 23:51:53 26° 114° (ESE) 2,758 5.4 -24.7°
